sat.trackr.live / text

‹ back to catalog

STARLINK-32952

NORAD 63146 · 2025-043Q

PAYLOAD ACTIVE UNKNOWN

§ Identity

Operator
Country
US
Launch date
2025-03-03
Launch site
AFETR
Launch vehicle
Mass (kg)
RCS (m²)

Purposes: comms

External: N2YO · Heavens-Above · Gunter

§ Orbital elements

Epoch: 2026-09-20T08:17:19.783104Z

Period
94.27 min
Inclination
43.0001°
Eccentricity
0.0001116
Mean motion
15.27583617 rev/d
Perigee alt
482.3 km
Apogee alt
483.8 km
Semi-major
6,861.2 km
B*
4.4824e-4
RAAN
3.7133°
Arg perigee
223.1888°
Mean anomaly
136.8876°
Rev number
8,768

§ Raw data

STARLINK-329521 63146U 25043Q   26263.34536786  .00012094  00000+0  44824-3 0  99952 63146  43.0001   3.7133 0001116 223.1888 136.8876 15.27583617 87681

JSON: /api/v1/satellites/63146 · /tle

For live sub-satellite position, see the globe view (requires WebGL).

§ Visibility from observer

Set your observer location to see the next 7 days of passes ≥ 10°. The values pass through the URL so the page stays shareable.

No JS? Fill the form by hand. The geolocation button needs JavaScript.